SCP
0 0 0 0 -0 0 -0 -0 -0 -0 0 0 0 0 0 0 0 0 0 0 0 0 0 0 0 0 0 5 4 4 2 2 3 2 1 1 1 0 0 0 1 1 0 0
0 0 0 0 0 -0 -0 -0 -0 -0 -0 -0 -0 0 0 0 0 0 0 0 0 0 0 0 0 0 2 6 5 4 2 3 3 3 1 1 1 0 1 1 1 0 1 1
0 0 0 0 0 0 0 -0 -0 -0 -0 -0 -0 0 0 0 0 0 0 0 0 0 0 0 0 0 4 5 6 4 3 5 3 2 2 3 2 2 1 2 1 1 1 2
0 -0 0 0 0 0 0 0 -0 0 -0 -0 -0 -0 0 0 0 0 0 0 0 0 0 0 0 0 5 5 4 5 6 6 3 2 2 2 2 1 2 1 3 2 1 1
-0 -0 -0 0 0 -0 0 0 0 -0 0 0 -0 0 -0 0 0 -0 0 0 0 0 0 0 0 1 4 4 6 6 7 5 3 4 3 2 3 2 2 2 1 1 1 1
0 0 0 0 0 -0 0 0 0 0 0 0 0 0 -0 0 0 0 0 0 0 0 0 0 0 2 3 3 5 7 4 7 3 4 2 2 1 1 1 0 1 0 0 0
0 0 0 0 0 0 0 0 0 0 0 0 0 0 0 0 -0 0 0 0 0 0 0 0 0 4 3 2 5 4 4 5 3 3 2 1 1 1 1 1 0 0 0 0
0 0 0 0 0 0 0 0 0 0 0 0 -0 0 0 -0 0 0 0 0 0 0 0 0 0 3 3 5 5 6 5 3 3 2 1 1 1 1 1 0 0 0 0 0
0 0 0 0 0 0 0 0 0 0 0 0 0 0 -0 0 0 0 0 0 0 0 0 0 0 6 2 6 8 7 3 3 3 1 2 1 2 1 0 0 0 0 0 0
0 0 0 0 0 0 0 0 0 0 0 0 0 0 0 0 0 0 0 0 0 0 0 0 0 1 2 8 8 5 4 3 1 2 1 2 1 1 0 0 0 0 0 0
0 0 0 0 0 -0 0 0 0 0 0 0 0 0 0 0 0 0 0 0 0 0 0 0 1 1 1 6 7 6 3 2 2 2 2 1 0 0 0 0 0 0 0 0
0 0 0 -0 -0 -0 0 -0 0 0 0 -0 0 -0 0 0 0 0 0 0 0 0 0 0 6 0 0 7 7 5 3 2 1 2 1 0 0 0 0 0 0 0 0 0
0 0 0 0 0 0 0 -0 -0 -0 -0 -0 -0 -0 -0 0 0 0 0 0 0 0 0 6 4 0 2 4 5 3 1 1 1 1 0 0 0 0 0 0 0 0 0 0
0 0 0 -0 -0 -0 0 0 -0 0 0 0 -0 -0 -0 0 0 0 0 0 0 2 5 4 5 2 1 2 1 0 0 0 0 0 0 0 0 0 0 0 0 0 0 0
0 0 -0 -0 -0 -0 -0 -0 -0 -0 0 -0 0 -0 0 0 0 0 0 0 3 5 3 2 0 2 0 0 0 0 0 0 0 0 0 0 0 0 0 0 0 0 0 0
0 0 -0 -0 -0 -0 0 0 0 -0 -0 -0 0 -0 0 0 0 0 0 1 2 3 1 1 1 0 0 0 0 0 0 0 0 0 0 0 0 0 0 0 0 0 0 0
-0 -0 0 0 0 0 0 0 0 -0 -0 -0 0 0 0 0 1 2 1 2 2 1 0 0 0 0 0 0 0 0 0 0 0 -0 -0 0 0 0 0 0 0 0 0 0
0 0 -0 0 0 0 0 0 -0 -0 -0 0 0 0 0 0 2 3 1 2 1 1 0 0 0 0 0 0 0 0 0 0 0 0 0 0 0 0 0 0 0 0 0 0
-0 -0 -0 0 0 0 0 -0 0 0 0 0 0 0 0 0 0 0 0 1 0 0 0 0 0 0 0 0 0 0 0 0 0 0 0 0 -0 -0 -0 0 0 0 0 0
-0 0 -0 -0 0 0 -0 0 -0 0 0 -0 0 0 0 1 0 0 0 0 0 0 0 0 0 0 0 0 0 0 0 0 0 0 -0 -0 -0 -0 0 0 0 0 0 0
0 0 0 -0 0 0 -0 -0 -0 0 0 0 0 0 0 0 0 0 0 0 0 0 0 0 0 0 0 0 0 0 0 0 0 -0 -0 -0 0 0 0 0 0 0 0 0
-0 -0 -0 0 0 -0 0 -0 0 0 0 0 0 0 0 0 0 0 0 0 0 0 0 0 0 0 0 0 0 0 0 0 -0 -0 0 0 0 0 0 0 0 0 0 0
-0 0 0 -0 0 0 0 0 0 0 0 0 0 0 0 0 0 0 0 0 0 0 0 0 0 0 0 0 0 0 0 -0 0 0 0 0 0 0 0 0 0 0 0 0
0 0 -0 0 0 0 0 0 0 0 0 0 0 0 0 0 0 0 0 0 0 0 0 0 0 0 0 0 0 0 0 0 0 0 0 0 0 0 0 0 0 0 0 0
0 -0 -0 0 0 0 0 -0 0 0 0 0 0 0 0 0 0 0 0 0 0 0 0 0 0 0 0 0 0 0 0 0 0 0 0 0 0 0 0 0 0 0 0 0
-0 0 -0 0 0 0 0 0 0 0 0 0 0 0 0 0 0 0 0 0 0 0 0 0 0 0 0 0 0 0 0 0 0 0 0 0 0 0 0 0 0 0 0 0
Wind_Speed_500mb
39 28 29 44 39 38 42 47 49 45 41 24 36 42 43 35 52 57 66 56 56 60 57 62 62 57 56 62 73 66 70 66 64 56 50 44 36 36 32 29 28 22 23 21
34 40 47 44 44 44 45 50 51 51 42 40 47 46 41 38 44 53 52 46 49 51 51 56 60 61 65 71 69 67 73 71 69 59 48 41 37 36 33 29 28 24 25 25
40 45 42 37 42 43 42 47 48 51 47 41 42 51 52 42 57 67 70 64 55 58 58 56 62 66 66 68 75 74 79 76 72 48 47 45 42 39 36 32 28 30 31 32
37 42 35 40 48 43 50 43 49 34 39 34 37 42 51 52 54 55 69 73 71 68 60 60 65 70 68 72 79 79 80 78 64 55 51 54 52 48 42 40 44 38 28 23
50 50 49 42 42 40 35 28 32 38 40 38 58 28 50 52 57 56 59 77 81 76 65 64 70 74 69 78 85 87 86 81 65 62 53 55 51 59 58 46 34 28 31 32
53 62 46 52 47 46 26 31 34 35 28 30 53 42 45 40 49 40 46 79 83 83 78 72 65 72 75 85 84 88 79 74 71 65 56 61 61 49 42 37 35 36 26 18
33 45 46 45 40 38 32 21 11 15 20 38 31 33 46 34 56 44 38 60 80 85 80 77 76 82 89 98 94 89 84 82 73 67 69 57 42 34 36 37 39 25 27 35
22 23 10 18 28 23 23 24 13 17 28 36 42 45 41 47 48 40 43 59 71 87 83 87 92 98 109 108 104 104 93 84 78 70 62 54 48 42 40 33 33 38 37 29
14 16 9 30 36 26 4 20 34 31 40 34 34 11 44 34 29 40 36 46 61 88 89 88 102 100 108 106 102 103 95 89 79 67 64 57 49 46 36 35 41 36 31 40
5 25 31 37 19 34 24 5 7 8 12 30 21 40 28 38 37 34 32 40 64 84 86 92 79 95 118 101 100 89 91 91 76 70 63 62 54 43 38 38 34 38 44 33
11 13 28 30 21 32 10 8 19 23 21 19 30 24 23 31 34 26 34 59 71 77 88 87 52 87 89 107 107 97 92 85 76 75 73 65 55 40 40 40 46 43 39 29
13 9 16 43 47 41 32 38 35 20 27 27 32 38 21 32 35 36 30 60 58 77 86 59 64 75 35 118 99 95 90 86 88 77 70 59 57 51 52 50 49 41 35 28
4 8 13 22 5 20 7 22 40 34 31 34 24 14 12 26 40 43 44 73 71 71 76 72 108 95 95 90 97 95 94 93 81 75 68 67 57 55 55 50 46 36 30 23
15 11 23 26 39 24 9 26 43 33 22 30 33 37 29 41 31 35 52 77 85 55 68 73 74 68 109 100 109 99 95 90 82 79 67 67 64 61 58 49 42 33 26 23
5 13 30 39 46 48 49 38 38 28 35 31 32 35 37 25 25 43 63 76 60 57 67 82 71 86 98 100 102 99 93 86 88 72 69 68 62 57 50 46 40 34 28 23
6 10 29 47 38 32 22 9 27 26 28 26 31 51 42 28 39 55 57 74 63 64 67 80 86 93 97 94 97 97 92 93 79 68 66 63 59 55 49 44 40 34 28 25
7 8 10 15 21 19 6 10 24 25 19 6 16 38 43 23 44 42 71 77 71 68 65 72 82 94 101 102 98 94 90 83 69 68 67 63 58 55 48 42 38 32 27 23
13 21 11 19 34 5 15 21 26 20 30 16 29 36 28 37 13 53 61 76 74 73 74 69 88 92 96 96 94 94 85 80 78 70 68 63 57 52 46 41 37 32 28 26
18 11 10 11 26 2 18 22 17 9 13 17 34 44 11 38 81 48 57 69 71 70 74 85 93 97 96 92 92 92 88 82 73 75 71 61 55 49 45 41 38 34 31 28
31 19 12 14 16 9 19 45 60 1 6 48 50 43 29 53 29 16 71 77 78 80 90 91 101 104 97 90 84 84 81 80 77 70 64 56 51 49 45 41 38 34 31 27
20 16 17 19 8 9 34 50 68 9 17 54 52 33 42 25 24 61 94 81 80 82 90 94 93 92 90 87 87 84 80 76 70 64 58 55 52 50 45 42 37 33 28 23
9 14 12 14 10 10 61 32 18 27 59 40 40 28 69 60 59 83 91 87 89 82 84 90 94 86 81 81 83 80 75 72 67 60 58 61 52 45 42 39 35 30 25 23
4 9 11 10 9 22 43 27 56 37 30 31 34 25 69 62 62 82 82 86 81 79 82 84 89 88 77 74 75 79 70 64 60 62 60 53 48 44 38 34 31 24 23 20
2 10 8 18 7 32 27 55 62 30 29 29 35 37 59 64 65 75 79 80 80 78 80 78 79 80 75 64 63 65 63 59 58 59 58 50 46 42 37 31 28 25 22 20
9 23 19 14 12 35 15 55 49 22 24 36 45 48 52 76 64 75 77 79 78 81 76 74 74 76 71 63 62 59 59 58 57 52 49 48 45 40 42 39 28 26 33 29
10 9 9 7 28 13 33 51 25 24 30 45 58 59 62 82 81 78 72 74 78 76 73 73 70 68 63 59 56 54 52 57 54 52 44 41 39 36 34 35 37 33 26 17
Wind_Direction_500mb
259 234 252 260 267 262 273 276 278 280 287 258 262 273 277 270 243 268 227 215 232 231 229 222 216 212 203 186 201 197 190 186 186 180 174 178 184 179 183 184 181 196 187 191
270 257 245 252 262 271 269 267 267 273 261 265 264 258 254 257 266 254 251 234 225 226 227 222 212 208 194 182 195 196 188 184 185 180 173 175 177 175 178 179 181 184 181 186
274 268 273 260 249 260 268 263 265 272 272 262 276 278 259 246 247 243 249 242 238 233 225 216 209 201 185 186 194 186 176 185 182 177 164 168 167 165 168 179 176 182 181 195
286 286 280 274 264 259 256 248 261 295 285 269 260 261 259 250 234 232 232 231 232 233 226 218 205 196 182 194 186 182 177 181 174 163 169 169 166 166 173 168 185 187 200 205
274 282 284 269 264 270 291 284 275 258 257 271 260 260 256 250 235 223 222 222 224 223 222 220 206 190 189 195 186 178 179 175 163 163 168 168 172 178 185 187 190 191 194 203
270 267 255 253 260 260 252 250 264 273 266 252 248 245 257 247 257 229 227 213 216 217 219 215 210 188 189 187 179 177 175 157 164 159 165 181 186 178 168 180 186 188 179 177
296 279 267 229 247 248 239 257 235 237 221 242 249 228 241 244 244 247 230 222 209 211 214 207 205 184 185 183 173 166 161 164 157 166 180 183 171 167 164 169 187 177 168 175
287 298 33 19 264 291 271 218 247 265 245 251 242 234 233 244 253 237 250 227 213 207 209 205 202 190 184 175 168 161 164 157 160 173 169 163 162 155 165 183 147 145 173 175
312 265 322 302 285 250 355 228 252 258 263 273 269 229 285 262 263 223 238 260 222 200 209 206 207 186 179 170 160 159 156 155 166 156 159 156 148 167 173 154 151 178 178 164
309 288 280 288 290 258 200 225 233 202 247 255 252 259 255 242 221 233 225 232 242 204 204 208 205 180 201 159 158 153 155 154 150 157 151 149 163 166 161 167 170 153 155 156
277 224 283 289 243 238 178 217 233 267 252 269 275 261 36 340 325 230 217 226 229 197 200 208 194 167 173 156 150 151 146 147 151 153 156 161 159 158 155 154 150 156 162 163
252 270 275 276 273 270 226 231 227 245 256 258 260 261 47 291 313 308 222 219 219 195 195 189 146 159 164 139 142 146 143 145 154 157 157 153 150 153 150 151 153 147 153 158
202 241 287 296 209 28 276 248 244 239 259 258 260 269 348 306 290 293 298 207 223 200 190 149 128 146 158 144 144 145 148 151 155 152 151 147 150 151 150 150 146 150 158 154
247 234 245 274 297 311 237 246 256 231 244 257 258 273 272 269 270 280 283 208 215 159 129 132 127 124 134 140 147 147 147 151 148 146 148 142 145 147 150 152 152 149 145 140
243 266 269 265 270 270 270 244 254 233 242 244 261 266 262 274 278 267 260 209 131 138 128 128 125 128 138 136 141 144 143 144 141 137 138 140 138 141 137 138 138 137 134 129
230 275 299 288 278 262 225 292 352 312 299 287 265 266 272 281 258 261 250 146 143 130 121 125 132 136 138 138 140 141 143 143 145 130 129 131 130 130 130 134 133 131 126 119
272 294 293 277 325 289 122 27 342 294 268 285 244 270 309 300 262 218 150 137 124 124 125 126 131 137 135 139 139 139 143 142 133 130 131 132 133 134 129 126 125 125 124 121
305 311 268 287 314 337 140 53 341 295 284 256 282 284 283 241 241 127 125 124 119 125 127 128 131 132 134 137 140 138 138 139 136 131 134 136 132 125 125 126 128 127 122 113
290 282 286 298 322 145 142 355 318 315 285 336 343 338 140 125 84 71 108 109 117 122 125 127 131 132 134 137 137 139 141 141 135 130 127 127 128 126 124 122 122 117 113 108
330 286 260 310 314 332 357 337 323 117 238 357 337 323 188 116 88 83 95 109 111 115 123 122 122 120 119 122 130 129 125 125 122 122 127 129 129 124 122 120 115 111 106 104
337 345 321 319 305 95 359 339 320 338 336 322 325 341 72 78 97 113 108 106 109 114 114 114 114 115 118 121 121 121 124 124 128 129 129 129 126 123 122 118 116 114 115 111
318 324 339 328 316 349 360 343 14 301 304 323 357 50 90 94 107 110 111 110 110 109 110 110 111 113 119 122 123 122 123 127 131 128 129 127 120 121 119 119 113 109 103 100
329 4 311 321 331 347 330 325 329 344 340 19 23 66 103 102 103 109 110 110 109 108 109 110 111 113 117 120 124 122 125 130 132 127 123 121 119 115 112 112 108 105 102 103
89 4 277 327 54 343 330 351 358 354 22 52 69 78 102 101 106 104 107 108 109 109 110 113 113 113 116 121 123 123 127 128 125 125 124 120 117 117 110 103 99 102 101 104
360 309 326 274 349 333 341 348 354 359 75 93 96 86 90 106 100 105 105 105 106 107 109 112 113 115 118 121 122 124 127 128 124 124 124 120 117 122 130 123 110 131 127 122
1 334 330 317 325 304 298 336 353 41 91 99 106 94 89 108 102 105 103 108 108 108 111 113 114 115 117 118 118 120 124 128 125 121 123 124 120 115 114 120 120 120 130 135
Wind_Speed_850mb
39 28 29 44 39 38 42 47 49 45 41 24 36 42 43 35 52 57 66 56 56 60 57 62 62 57 56 62 73 66 70 66 64 56 50 44 36 36 32 29 28 22 23 21
34 40 47 44 44 44 45 50 51 51 42 40 47 46 41 38 44 53 52 46 49 51 51 56 60 61 65 71 69 67 73 71 69 59 48 41 37 36 33 29 28 24 25 25
40 45 42 37 42 43 42 47 48 51 47 41 42 51 52 42 57 67 70 64 55 58 58 56 62 66 66 68 75 74 79 76 72 48 47 45 42 39 36 32 28 30 31 32
37 42 35 40 48 43 50 43 49 34 39 34 37 42 51 52 54 55 69 73 71 68 60 60 65 70 68 72 79 79 80 78 64 55 51 54 52 48 42 40 44 38 28 23
50 50 49 42 42 40 35 28 32 38 40 38 58 28 50 52 57 56 59 77 81 76 65 64 70 74 69 78 85 87 86 81 65 62 53 55 51 59 58 46 34 28 31 32
53 62 46 52 47 46 26 31 34 35 28 30 53 42 45 40 49 40 46 79 83 83 78 72 65 72 75 85 84 88 79 74 71 65 56 61 61 49 42 37 35 36 26 18
33 45 46 45 40 38 32 21 11 15 20 38 31 33 46 34 56 44 38 60 80 85 80 77 76 82 89 98 94 89 84 82 73 67 69 57 42 34 36 37 39 25 27 35
22 23 10 18 28 23 23 24 13 17 28 36 42 45 41 47 48 40 43 59 71 87 83 87 92 98 109 108 104 104 93 84 78 70 62 54 48 42 40 33 33 38 37 29
14 16 9 30 36 26 4 20 34 31 40 34 34 11 44 34 29 40 36 46 61 88 89 88 102 100 108 106 102 103 95 89 79 67 64 57 49 46 36 35 41 36 31 40
5 25 31 37 19 34 24 5 7 8 12 30 21 40 28 38 37 34 32 40 64 84 86 92 79 95 118 101 100 89 91 91 76 70 63 62 54 43 38 38 34 38 44 33
11 13 28 30 21 32 10 8 19 23 21 19 30 24 23 31 34 26 34 59 71 77 88 87 52 87 89 107 107 97 92 85 76 75 73 65 55 40 40 40 46 43 39 29
13 9 16 43 47 41 32 38 35 20 27 27 32 38 21 32 35 36 30 60 58 77 86 59 64 75 35 118 99 95 90 86 88 77 70 59 57 51 52 50 49 41 35 28
4 8 13 22 5 20 7 22 40 34 31 34 24 14 12 26 40 43 44 73 71 71 76 72 108 95 95 90 97 95 94 93 81 75 68 67 57 55 55 50 46 36 30 23
15 11 23 26 39 24 9 26 43 33 22 30 33 37 29 41 31 35 52 77 85 55 68 73 74 68 109 100 109 99 95 90 82 79 67 67 64 61 58 49 42 33 26 23
5 13 30 39 46 48 49 38 38 28 35 31 32 35 37 25 25 43 63 76 60 57 67 82 71 86 98 100 102 99 93 86 88 72 69 68 62 57 50 46 40 34 28 23
6 10 29 47 38 32 22 9 27 26 28 26 31 51 42 28 39 55 57 74 63 64 67 80 86 93 97 94 97 97 92 93 79 68 66 63 59 55 49 44 40 34 28 25
7 8 10 15 21 19 6 10 24 25 19 6 16 38 43 23 44 42 71 77 71 68 65 72 82 94 101 102 98 94 90 83 69 68 67 63 58 55 48 42 38 32 27 23
13 21 11 19 34 5 15 21 26 20 30 16 29 36 28 37 13 53 61 76 74 73 74 69 88 92 96 96 94 94 85 80 78 70 68 63 57 52 46 41 37 32 28 26
18 11 10 11 26 2 18 22 17 9 13 17 34 44 11 38 81 48 57 69 71 70 74 85 93 97 96 92 92 92 88 82 73 75 71 61 55 49 45 41 38 34 31 28
31 19 12 14 16 9 19 45 60 1 6 48 50 43 29 53 29 16 71 77 78 80 90 91 101 104 97 90 84 84 81 80 77 70 64 56 51 49 45 41 38 34 31 27
20 16 17 19 8 9 34 50 68 9 17 54 52 33 42 25 24 61 94 81 80 82 90 94 93 92 90 87 87 84 80 76 70 64 58 55 52 50 45 42 37 33 28 23
9 14 12 14 10 10 61 32 18 27 59 40 40 28 69 60 59 83 91 87 89 82 84 90 94 86 81 81 83 80 75 72 67 60 58 61 52 45 42 39 35 30 25 23
4 9 11 10 9 22 43 27 56 37 30 31 34 25 69 62 62 82 82 86 81 79 82 84 89 88 77 74 75 79 70 64 60 62 60 53 48 44 38 34 31 24 23 20
2 10 8 18 7 32 27 55 62 30 29 29 35 37 59 64 65 75 79 80 80 78 80 78 79 80 75 64 63 65 63 59 58 59 58 50 46 42 37 31 28 25 22 20
9 23 19 14 12 35 15 55 49 22 24 36 45 48 52 76 64 75 77 79 78 81 76 74 74 76 71 63 62 59 59 58 57 52 49 48 45 40 42 39 28 26 33 29
10 9 9 7 28 13 33 51 25 24 30 45 58 59 62 82 81 78 72 74 78 76 73 73 70 68 63 59 56 54 52 57 54 52 44 41 39 36 34 35 37 33 26 17
Wind_Direction_850mb
259 234 252 260 267 262 273 276 278 280 287 258 262 273 277 270 243 268 227 215 232 231 229 222 216 212 203 186 201 197 190 186 186 180 174 178 184 179 183 184 181 196 187 191
270 257 245 252 262 271 269 267 267 273 261 265 264 258 254 257 266 254 251 234 225 226 227 222 212 208 194 182 195 196 188 184 185 180 173 175 177 175 178 179 181 184 181 186
274 268 273 260 249 260 268 263 265 272 272 262 276 278 259 246 247 243 249 242 238 233 225 216 209 201 185 186 194 186 176 185 182 177 164 168 167 165 168 179 176 182 181 195
286 286 280 274 264 259 256 248 261 295 285 269 260 261 259 250 234 232 232 231 232 233 226 218 205 196 182 194 186 182 177 181 174 163 169 169 166 166 173 168 185 187 200 205
274 282 284 269 264 270 291 284 275 258 257 271 260 260 256 250 235 223 222 222 224 223 222 220 206 190 189 195 186 178 179 175 163 163 168 168 172 178 185 187 190 191 194 203
270 267 255 253 260 260 252 250 264 273 266 252 248 245 257 247 257 229 227 213 216 217 219 215 210 188 189 187 179 177 175 157 164 159 165 181 186 178 168 180 186 188 179 177
296 279 267 229 247 248 239 257 235 237 221 242 249 228 241 244 244 247 230 222 209 211 214 207 205 184 185 183 173 166 161 164 157 166 180 183 171 167 164 169 187 177 168 175
287 298 33 19 264 291 271 218 247 265 245 251 242 234 233 244 253 237 250 227 213 207 209 205 202 190 184 175 168 161 164 157 160 173 169 163 162 155 165 183 147 145 173 175
312 265 322 302 285 250 355 228 252 258 263 273 269 229 285 262 263 223 238 260 222 200 209 206 207 186 179 170 160 159 156 155 166 156 159 156 148 167 173 154 151 178 178 164
309 288 280 288 290 258 200 225 233 202 247 255 252 259 255 242 221 233 225 232 242 204 204 208 205 180 201 159 158 153 155 154 150 157 151 149 163 166 161 167 170 153 155 156
277 224 283 289 243 238 178 217 233 267 252 269 275 261 36 340 325 230 217 226 229 197 200 208 194 167 173 156 150 151 146 147 151 153 156 161 159 158 155 154 150 156 162 163
252 270 275 276 273 270 226 231 227 245 256 258 260 261 47 291 313 308 222 219 219 195 195 189 146 159 164 139 142 146 143 145 154 157 157 153 150 153 150 151 153 147 153 158
202 241 287 296 209 28 276 248 244 239 259 258 260 269 348 306 290 293 298 207 223 200 190 149 128 146 158 144 144 145 148 151 155 152 151 147 150 151 150 150 146 150 158 154
247 234 245 274 297 311 237 246 256 231 244 257 258 273 272 269 270 280 283 208 215 159 129 132 127 124 134 140 147 147 147 151 148 146 148 142 145 147 150 152 152 149 145 140
243 266 269 265 270 270 270 244 254 233 242 244 261 266 262 274 278 267 260 209 131 138 128 128 125 128 138 136 141 144 143 144 141 137 138 140 138 141 137 138 138 137 134 129
230 275 299 288 278 262 225 292 352 312 299 287 265 266 272 281 258 261 250 146 143 130 121 125 132 136 138 138 140 141 143 143 145 130 129 131 130 130 130 134 133 131 126 119
272 294 293 277 325 289 122 27 342 294 268 285 244 270 309 300 262 218 150 137 124 124 125 126 131 137 135 139 139 139 143 142 133 130 131 132 133 134 129 126 125 125 124 121
305 311 268 287 314 337 140 53 341 295 284 256 282 284 283 241 241 127 125 124 119 125 127 128 131 132 134 137 140 138 138 139 136 131 134 136 132 125 125 126 128 127 122 113
290 282 286 298 322 145 142 355 318 315 285 336 343 338 140 125 84 71 108 109 117 122 125 127 131 132 134 137 137 139 141 141 135 130 127 127 128 126 124 122 122 117 113 108
330 286 260 310 314 332 357 337 323 117 238 357 337 323 188 116 88 83 95 109 111 115 123 122 122 120 119 122 130 129 125 125 122 122 127 129 129 124 122 120 115 111 106 104
337 345 321 319 305 95 359 339 320 338 336 322 325 341 72 78 97 113 108 106 109 114 114 114 114 115 118 121 121 121 124 124 128 129 129 129 126 123 122 118 116 114 115 111
318 324 339 328 316 349 360 343 14 301 304 323 357 50 90 94 107 110 111 110 110 109 110 110 111 113 119 122 123 122 123 127 131 128 129 127 120 121 119 119 113 109 103 100
329 4 311 321 331 347 330 325 329 344 340 19 23 66 103 102 103 109 110 110 109 108 109 110 111 113 117 120 124 122 125 130 132 127 123 121 119 115 112 112 108 105 102 103
89 4 277 327 54 343 330 351 358 354 22 52 69 78 102 101 106 104 107 108 109 109 110 113 113 113 116 121 123 123 127 128 125 125 124 120 117 117 110 103 99 102 101 104
360 309 326 274 349 333 341 348 354 359 75 93 96 86 90 106 100 105 105 105 106 107 109 112 113 115 118 121 122 124 127 128 124 124 124 120 117 122 130 123 110 131 127 122
1 334 330 317 325 304 298 336 353 41 91 99 106 94 89 108 102 105 103 108 108 108 111 113 114 115 117 118 118 120 124 128 125 121 123 124 120 115 114 120 120 120 130 135